Home > Weather > Abbotsford > Past weeks

Flag for Canada Past Weather in Abbotsford, British Columbia, Canada — Yesterday and Last 2 Weeks

Now
54 °F

Passing clouds.


Feels Like: 54 °F
Forecast: 55 / 79 °F
Wind: No wind

Location: Abbotsford

Current Time: Jun 26, 2016 at 6:58:37 AM

Latest Report: Jun 26, 2016 at 6:00 AM


Visibility: 25 mi

Pressure: 30.23 "Hg

Humidity: 94%

Dew Point: 52 °F

Location of AbbotsfordLocation

Past Weather in Abbotsford — Graph

°F

Abbotsford Temperature Yesterday

Maximum temperature yesterday: 70 °F (at 4:00 PM)
Minimum temperature yesterday: 55 °F (at 4:00 AM)
Average temperature yesterday: 62 °F

High & Low Weather Summary for the Past Weeks

 TemperatureHumidityPressure
High73 °F (Jun 17, 3:00 PM)100% (Jun 15, 4:00 AM)30.42 "Hg (Jun 15, 4:00 AM)
Low43 °F (Jun 16, 4:00 AM)36% (Jun 17, 4:00 PM)29.88 "Hg (Jun 14, 4:00 AM)
Average58 °F76%30.11 "Hg
* Reported Jun 11 5:00 AM — Jun 26 5:00 AM, Abbotsford, Weather by CustomWeather, © 2016

Note: Actual official high and low records may vary slightly from our data, if they occured in-between our weather recording intervals... More about our weather records

Advertising

Abbotsford Weather History for the Previous 24 Hours

Scroll right to see more
 ConditionsComfort  
Time TempWeatherWind HumidityBarometerVisibility
5:00 AM
Sun, Jun 26
52 °FPassing clouds.5 mph100%30.23 "Hg30 mi
4:00 AM54 °FClear.3 mph94%30.23 "Hg25 mi
3:00 AM54 °FClear.2 mph94%30.23 "Hg12 mi
2:00 AM54 °FClear.No wind94%30.23 "Hg12 mi
1:00 AM57 °FClear.2 mph82%30.23 "Hg12 mi
12:00 AM59 °FClear.2 mph82%30.23 "Hg12 mi
11:00 PM
Sat, Jun 25
57 °FPassing clouds.5 mph88%30.23 "Hg15 mi
10:00 PM61 °FPassing clouds.5 mph77%30.22 "Hg25 mi
9:00 PM64 °FPassing clouds.6 mph68%30.21 "Hg30 mi
8:00 PM68 °FPassing clouds.8 mph60%30.20 "Hg25 mi
7:00 PM70 °FPassing clouds.7 mph60%30.21 "Hg25 mi
6:00 PM70 °FScattered clouds.7 mph60%30.22 "Hg25 mi
5:00 PM70 °FScattered clouds.6 mph60%30.23 "Hg20 mi
4:00 PM70 °FBroken clouds.6 mph60%30.25 "Hg25 mi
3:00 PM68 °FBroken clouds.6 mph64%30.26 "Hg25 mi
2:00 PM68 °FBroken clouds.8 mph64%30.27 "Hg15 mi
1:00 PM64 °FBroken clouds.3 mph68%30.27 "Hg20 mi
12:00 PM63 °FBroken clouds.5 mph73%30.28 "Hg15 mi
11:00 AM61 °FBroken clouds.No wind77%30.28 "Hg15 mi
10:00 AM61 °FCloudy.2 mph72%30.28 "Hg15 mi
9:00 AM59 °FCloudy.2 mph77%30.28 "Hg15 mi
8:00 AM57 °FMore clouds than sun.2 mph82%30.29 "Hg15 mi
7:00 AM57 °FMostly cloudy.5 mph88%30.28 "Hg20 mi
6:00 AM55 °FMostly cloudy.3 mph94%30.27 "Hg20 mi
Weather by CustomWeather, © 2016

See weather overviewHow to use our weather pages